sat.trackr.live / text

‹ back to catalog

STARLINK-11209 [DTC]

NORAD 61200 · 2024-171A

PAYLOAD ACTIVE UNKNOWN

§ Identity

Operator
Country
US
Launch date
2024-09-20
Launch site
AFWTR
Launch vehicle
Mass (kg)
RCS (m²)

Purposes: comms

External: N2YO · Heavens-Above · Gunter

§ Orbital elements

Epoch: 2026-09-21T18:36:24.928128Z

Period
91.74 min
Inclination
53.1606°
Eccentricity
0.0000675
Mean motion
15.69700223 rev/d
Perigee alt
359.3 km
Apogee alt
360.2 km
Semi-major
6,737.9 km
B*
1.4202e-5
RAAN
289.8244°
Arg perigee
125.9824°
Mean anomaly
234.1257°
Rev number
11,610

§ Raw data

STARLINK-11209 [DTC]1 61200U 24171A   26264.77528852  .00001132  00000+0  14202-4 0  99972 61200  53.1606 289.8244 0000675 125.9824 234.1257 15.69700223116106

JSON: /api/v1/satellites/61200 · /tle

For live sub-satellite position, see the globe view (requires WebGL).

§ Visibility from observer

Set your observer location to see the next 7 days of passes ≥ 10°. The values pass through the URL so the page stays shareable.

No JS? Fill the form by hand. The geolocation button needs JavaScript.